Theta_e
341 342 345 347 348 348 349 351 354 353 354 356 358 357 357 358 360 361 362 363 364 365 366 366 366 366 365 364 365 366 366 366 366 365 365 364 364 364 364 364 364 365 361 360 365 364 368 369 367 368 370 371 370 369 371 370 369 368 368 368 366 365 364
337 340 343 345 347 348 350 352 354 353 354 356 357 359 357 358 359 360 361 364 365 365 366 366 366 365 365 365 366 366 366 366 366 366 366 365 366 365 366 367 365 365 365 363 362 367 368 370 369 369 370 372 371 372 371 371 370 370 367 367 365 364 363
337 339 342 344 346 348 350 352 354 353 355 355 356 357 357 359 360 361 361 362 364 365 366 366 366 365 365 365 366 366 367 367 367 366 365 363 365 363 366 367 367 364 365 366 365 366 370 371 372 371 371 371 370 371 371 371 371 369 369 368 366 364 365
338 339 342 345 347 350 351 352 353 353 354 355 355 356 358 360 361 361 361 362 363 364 364 365 365 364 364 365 366 367 367 367 367 366 365 365 365 366 365 366 367 365 365 365 365 365 368 371 372 373 371 371 371 370 371 370 368 369 368 368 365 365 366
338 340 341 343 345 348 349 350 351 353 353 353 355 358 359 359 359 360 361 362 362 363 363 364 364 365 366 367 366 366 367 368 368 367 367 366 367 367 366 365 365 365 364 365 367 368 369 371 371 372 372 372 371 370 370 372 369 369 368 367 365 364 363
334 339 341 342 344 345 348 349 350 351 352 352 354 356 357 357 357 357 358 361 361 363 365 365 365 365 365 365 366 365 368 369 370 369 368 368 367 365 366 365 365 366 364 365 366 366 369 369 369 370 370 370 368 366 369 370 369 368 368 367 367 365 363
332 339 341 342 343 344 347 349 349 351 352 352 353 356 356 355 356 356 357 359 359 360 361 362 363 364 365 365 366 367 367 368 369 368 368 368 368 367 367 367 367 366 366 367 366 367 367 368 368 369 369 368 369 366 367 370 369 370 370 368 367 366 366
331 338 343 343 343 344 346 348 349 349 351 352 351 352 353 353 354 355 356 356 357 358 359 359 362 364 365 366 366 366 366 367 368 368 368 367 367 367 366 367 367 368 368 366 368 369 366 369 369 369 368 368 369 370 368 370 372 369 369 369 367 366 365
331 341 342 342 343 342 344 348 349 349 351 352 351 352 352 353 353 354 355 355 356 356 357 358 360 363 366 365 365 366 367 367 367 368 368 366 366 365 365 366 368 369 367 366 365 369 368 368 368 370 371 369 369 371 370 371 372 370 369 368 368 367 365
331 344 344 342 343 341 344 345 349 351 351 352 352 353 352 351 353 353 353 353 354 354 355 357 359 361 364 365 365 366 366 367 366 366 365 364 365 365 365 364 366 368 367 367 365 366 369 369 369 370 371 369 370 370 371 371 371 371 369 369 368 367 367
341 345 344 340 340 342 343 343 347 351 352 355 354 351 353 352 352 351 352 353 353 354 355 357 359 359 362 364 362 363 365 365 366 364 365 364 364 364 364 364 364 366 366 366 365 364 368 369 370 370 371 369 369 370 370 370 371 370 368 368 368 368 366
343 341 344 343 342 342 341 346 349 352 353 355 353 351 354 354 352 351 352 353 353 354 355 356 358 358 360 361 361 362 364 365 366 365 364 363 363 363 363 363 364 364 365 366 365 365 364 368 368 368 370 371 370 371 371 372 371 371 369 368 368 367 366
334 336 341 342 345 344 347 348 348 352 355 353 351 352 352 351 351 351 353 353 353 354 355 357 358 359 360 361 361 361 363 364 364 364 362 364 363 363 363 362 362 362 363 365 365 364 362 363 367 368 369 370 370 369 370 371 371 371 371 369 368 368 366
342 335 341 345 347 347 348 350 351 353 355 354 352 353 352 351 350 351 352 352 353 353 354 355 357 358 358 360 361 362 363 365 366 365 365 364 366 365 364 363 363 364 365 365 364 363 363 361 363 367 368 369 370 370 370 371 370 371 371 370 368 367 367
333 334 340 341 347 351 351 351 353 352 352 352 351 351 351 350 351 353 354 353 354 352 353 356 357 358 358 360 361 363 365 366 367 367 366 365 366 366 365 365 365 365 364 365 365 364 363 363 362 365 367 368 369 370 369 368 369 370 370 368 367 367 366
327 328 330 335 343 347 353 354 355 356 353 353 350 351 350 351 352 351 352 352 352 353 354 356 358 358 358 359 361 363 366 366 367 367 367 365 365 366 366 364 365 364 364 364 364 365 366 365 364 363 365 366 368 368 368 367 368 356 341 346 365 366 365
323 326 328 331 339 343 347 352 354 357 354 354 352 352 352 353 353 352 350 351 351 353 354 354 358 359 359 360 363 364 367 367 367 368 367 366 366 367 366 365 365 365 366 365 366 366 367 365 364 362 363 365 366 367 367 367 365 339 334 336 340 359 366
324 328 332 332 336 341 345 349 353 355 354 352 353 354 354 355 353 352 349 350 351 351 352 354 356 358 360 362 364 365 367 367 368 367 367 367 366 366 367 366 365 365 366 365 365 366 366 365 364 365 364 364 365 365 366 367 347 332 331 333 334 341 364
327 326 329 345 345 346 343 342 346 355 353 351 350 351 353 354 352 353 352 353 354 354 352 352 354 360 363 363 365 366 367 368 367 367 366 367 367 366 367 367 366 365 365 364 366 367 366 366 365 365 365 364 365 365 366 367 341 330 328 331 331 333 347
323 324 328 333 346 344 346 348 347 346 349 353 351 348 352 356 352 354 354 352 354 354 355 355 356 361 362 363 365 366 366 367 367 366 366 367 367 367 367 366 365 365 364 365 366 365 366 365 365 366 366 365 365 366 366 367 338 327 325 327 327 330 338
324 327 344 347 352 349 354 355 355 354 350 348 349 350 349 351 352 353 353 352 351 353 356 355 356 360 363 363 364 365 366 367 366 365 366 367 367 366 366 365 366 365 364 363 364 365 365 365 365 365 366 365 364 365 365 366 332 324 322 323 323 326 331
327 332 339 347 357 361 360 359 360 357 353 351 348 348 348 349 350 349 351 352 350 352 354 356 358 358 363 363 362 364 365 364 365 364 365 365 365 365 364 364 365 365 365 364 363 365 365 366 366 365 365 366 366 363 364 365 327 321 321 321 321 323 346
338 349 351 355 353 354 359 360 359 360 360 354 350 347 347 348 349 349 351 351 350 354 353 355 358 358 363 362 362 362 363 363 363 363 364 364 364 364 363 364 365 365 367 364 362 363 364 365 365 366 365 365 366 365 365 366 338 319 318 319 319 325 352
346 349 349 351 355 354 357 359 360 361 359 353 351 349 348 348 350 351 351 351 350 352 352 352 357 360 362 362 361 361 363 364 364 364 363 364 363 363 363 364 365 365 366 364 363 360 362 365 365 366 366 364 365 364 365 365 341 315 316 317 316 329 353
346 348 351 351 352 352 355 358 359 358 358 355 349 350 351 351 350 348 349 351 349 351 352 353 357 359 360 362 362 363 363 365 365 364 363 363 363 363 363 363 364 365 366 364 364 363 364 363 364 365 366 365 365 348 358 364 341 314 317 315 315 331 355
350 349 350 351 352 354 357 357 361 352 350 348 351 353 353 350 349 350 351 351 350 350 352 356 359 363 363 362 362 363 364 364 365 366 364 365 365 365 364 366 364 364 363 364 364 363 362 361 362 364 364 364 363 362 362 362 363 336 314 315 314 320 353
349 348 349 350 350 351 355 355 355 355 356 360 360 357 354 351 351 351 353 355 353 352 355 359 362 365 365 364 362 361 363 364 364 364 363 364 365 365 364 364 363 363 363 362 363 364 363 361 362 362 363 364 364 363 361 360 361 351 312 314 313 316 330
347 348 348 348 348 350 353 352 355 354 354 357 357 355 354 354 353 353 356 356 354 356 357 362 365 366 365 364 362 360 362 363 365 366 365 365 365 366 365 365 366 365 365 364 364 364 363 364 363 362 362 363 363 363 363 355 342 365 317 315 312 315 319
348 349 349 348 348 348 350 352 351 351 354 357 358 357 360 358 356 357 358 356 359 360 363 365 363 363 363 364 362 363 364 365 365 364 364 363 365 365 365 366 365 366 366 366 365 364 363 363 362 361 360 360 361 360 362 364 361 334 336 314 313 312 316
347 349 349 349 349 349 349 350 350 350 353 356 363 361 358 361 360 362 364 363 365 364 362 363 363 363 362 361 361 360 360 361 362 364 364 364 364 365 366 366 367 366 365 365 363 362 360 358 360 360 358 357 355 357 359 363 362 340 327 326 312 313 313
346 347 348 348 347 350 350 349 349 349 350 353 358 361 362 362 359 359 358 360 363 364 361 361 361 361 360 360 361 362 361 361 362 362 363 364 364 364 364 366 366 363 364 364 362 361 359 358 359 357 357 356 356 358 359 360 362 363 340 319 315 313 312
345 347 348 348 348 349 350 350 350 350 349 350 351 353 355 357 358 356 357 360 362 364 365 363 360 359 359 360 361 361 362 361 362 363 365 366 365 366 366 366 363 362 361 360 358 358 358 357 357 356 357 357 358 357 359 361 361 363 362 327 320 317 314
344 345 346 345 346 348 349 349 348 347 347 347 350 351 351 352 353 355 358 360 361 364 365 366 364 362 362 361 360 362 361 360 359 360 361 365 364 364 363 362 361 361 359 359 358 359 358 357 357 356 355 356 357 358 359 361 360 361 364 347 337 332 328
342 343 344 346 347 349 348 347 346 346 345 345 347 349 349 350 350 352 354 356 360 362 364 364 364 363 363 362 362 360 361 360 356 359 360 360 361 360 360 359 360 359 359 358 359 358 357 358 356 355 356 355 356 357 357 359 360 360 363 352 345 340 338
341 342 343 344 346 346 345 344 344 344 343 343 345 346 347 347 348 349 351 353 356 359 358 357 357 360 361 362 361 361 363 364 363 359 359 359 361 360 362 361 360 362 361 361 362 362 360 359 358 358 359 359 358 357 356 357 357 360 340 356 330 340 343
341 341 342 343 344 344 344 344 344 343 343 343 344 344 344 345 346 348 349 351 353 354 353 353 353 353 352 353 353 354 354 356 355 356 357 357 357 359 360 347 326 339 356 360 342 327 316 315 343 350 348 348 354 359 358 359 360 328 320 318 318 318 321
339 339 340 342 342 341 342 342 342 342 342 343 344 343 344 343 345 346 348 350 351 350 350 351 349 347 347 346 346 345 349 349 351 352 352 351 350 349 346 345 345 318 310 317 315 309 303 301 300 302 306 325 336 336 322 318 314 312 313 309 310 312 314
338 340 340 341 341 340 340 340 341 341 341 343 343 343 344 343 344 345 346 348 349 349 348 349 348 345 344 345 345 345 347 347 348 347 345 345 347 347 346 344 345 349 327 312 317 312 304 302 302 301 301 302 308 317 333 323 313 309 308 310 309 309 310
Wind_Speed
17 17 18 17 17 19 20 21 22 21 21 20 20 22 22 20 19 18 18 19 21 20 20 19 18 16 18 16 17 15 15 14 13 13 13 12 11 12 12 11 12 11 11 11 10 11 10 11 11 11 10 11 11 10 10 10 9 9 9 9 8 8 9
15 16 17 18 19 20 21 21 21 20 20 21 20 22 21 22 20 20 19 20 21 21 20 20 19 18 18 17 15 16 16 16 15 12 12 11 11 11 12 12 12 11 11 11 10 10 10 11 11 11 11 11 11 11 11 11 10 9 9 10 9 8 8
17 17 17 18 18 18 21 20 20 20 21 20 20 21 22 22 22 22 20 20 21 21 20 21 20 19 17 17 17 18 17 16 15 15 15 14 15 15 13 12 12 12 12 12 11 10 10 11 11 11 12 11 11 11 11 11 11 10 10 10 10 9 9
15 17 18 20 20 20 20 21 22 21 20 22 22 24 23 23 22 20 20 21 22 21 22 21 20 20 18 18 18 16 17 17 17 16 16 15 14 14 13 13 12 12 11 12 12 11 10 11 12 12 12 11 11 11 11 12 11 11 11 11 9 9 9
16 17 16 16 18 17 18 19 21 21 23 24 24 23 23 23 22 20 20 20 22 24 24 23 19 18 16 17 14 14 17 18 17 16 15 14 14 13 14 15 14 14 13 13 12 11 11 11 12 12 11 12 12 11 12 12 11 11 11 12 10 9 9
15 15 15 16 17 18 19 21 23 24 24 24 24 24 22 24 22 24 23 22 21 21 20 20 20 19 19 19 17 16 16 17 16 16 15 14 14 14 15 15 15 15 15 14 12 13 13 12 12 13 13 12 13 13 12 12 12 12 12 12 11 9 9
14 16 16 16 17 18 20 21 22 22 22 22 21 19 20 21 23 23 22 22 23 22 22 23 22 21 19 17 18 18 18 18 17 18 16 16 16 16 15 14 14 14 13 12 13 13 14 14 13 13 13 13 12 13 12 12 12 11 11 12 11 10 10
14 14 16 17 18 18 19 20 21 21 19 18 19 20 21 21 20 22 22 21 22 22 21 23 21 19 19 18 17 20 19 19 18 17 16 17 16 16 15 15 14 14 13 14 14 13 14 14 13 13 13 13 13 12 13 12 12 13 11 12 11 12 10
13 14 14 14 15 15 15 16 16 17 18 19 21 20 21 20 20 21 24 23 21 22 23 22 22 20 18 18 18 20 19 18 18 17 18 19 17 18 17 16 15 14 14 14 13 14 14 14 14 13 13 13 12 12 12 13 13 12 12 12 13 13 12
4 6 8 8 9 11 11 11 13 14 17 18 18 19 21 21 20 20 21 21 21 24 24 23 21 20 19 19 20 20 19 18 18 19 19 20 17 19 19 17 16 15 15 15 14 13 13 14 14 13 13 14 13 13 13 13 13 12 13 13 13 13 13
5 6 6 8 9 10 10 12 14 15 15 16 17 18 18 20 20 21 21 21 21 22 24 22 21 21 21 21 22 21 19 20 19 20 20 20 18 20 20 19 17 15 16 15 15 15 13 13 13 13 14 13 14 14 14 14 14 13 13 13 13 14 13
4 4 6 9 10 11 14 13 12 13 15 15 17 18 18 18 20 21 20 22 22 21 21 22 20 21 21 21 21 20 22 20 20 20 22 21 20 21 20 18 18 17 15 16 16 16 15 14 13 13 14 14 14 14 14 14 14 14 14 14 14 13 14
4 5 7 8 9 9 10 10 14 14 15 15 18 18 17 19 19 19 19 21 22 19 20 20 19 19 20 20 21 20 21 20 20 20 21 20 19 18 18 19 19 19 17 16 17 17 16 16 15 14 14 15 14 15 15 14 14 14 14 14 14 14 14
5 6 5 5 6 8 10 11 11 12 15 16 16 17 16 18 18 18 18 20 20 20 19 17 19 19 19 19 19 19 20 20 20 20 19 18 17 17 18 18 18 17 16 15 17 17 18 18 16 15 14 15 15 15 14 14 14 14 15 14 14 13 14
5 6 6 6 7 8 10 11 12 13 14 16 17 19 19 18 18 16 17 17 17 19 20 19 19 20 20 19 18 18 18 17 17 17 17 17 17 17 18 17 16 17 16 16 16 15 17 17 17 16 15 15 16 15 15 15 14 13 14 15 15 14 14
5 5 5 7 8 9 10 11 10 12 14 15 18 18 19 18 18 19 19 18 19 19 19 17 18 19 19 19 18 17 17 17 16 16 17 17 18 17 18 17 17 17 17 17 17 15 15 16 16 17 17 16 16 15 14 14 13 14 18 16 14 15 13
7 7 4 4 5 7 8 9 9 11 14 15 17 18 17 17 17 18 19 18 19 19 18 18 17 18 19 19 17 17 17 16 16 15 17 17 17 17 17 18 16 16 16 16 16 16 15 15 17 17 16 17 16 17 15 13 13 17 19 19 18 15 14
11 8 5 4 4 5 6 7 9 11 14 16 17 18 17 16 17 17 19 19 19 19 18 17 17 18 18 17 16 17 17 16 16 17 17 17 18 17 17 16 17 16 16 16 17 16 15 16 17 17 16 15 17 17 16 15 15 18 20 20 20 18 14
13 12 7 4 5 7 7 8 8 10 12 13 15 16 19 17 16 17 18 17 16 15 17 19 19 17 16 16 16 17 16 15 17 17 17 18 17 16 16 17 17 17 17 18 17 16 17 17 16 17 17 16 17 17 16 16 16 19 21 22 22 22 18
17 16 13 8 3 4 5 5 5 6 9 11 13 16 15 16 18 16 16 16 14 16 16 16 16 15 15 16 16 16 15 16 17 17 17 16 16 16 16 17 18 18 17 16 16 16 16 17 18 16 16 17 17 15 15 16 15 21 22 22 23 22 20
17 14 9 6 5 5 3 4 5 6 7 9 11 12 14 16 17 15 15 17 18 17 16 16 16 15 15 16 16 15 16 17 17 17 16 16 16 16 17 17 16 17 17 16 16 16 16 17 17 17 17 17 17 16 16 15 16 21 22 22 23 22 20
14 12 9 5 3 2 4 5 6 6 6 6 8 11 12 13 14 15 16 17 18 17 17 16 16 15 14 16 17 17 17 17 16 16 15 16 16 17 18 17 17 17 16 15 15 15 15 15 16 17 17 17 17 17 18 16 18 21 22 22 22 23 16
7 4 4 3 4 5 4 6 7 7 6 7 7 9 11 11 13 15 15 17 17 17 17 16 15 16 16 17 17 17 17 17 16 16 16 16 16 17 18 18 17 16 14 15 16 15 16 16 16 15 16 18 18 18 16 15 15 20 22 22 24 19 14
4 3 4 4 3 5 6 7 7 8 7 7 8 9 9 11 12 14 14 15 16 17 17 18 17 17 16 16 17 16 15 14 15 15 15 15 17 18 17 17 14 15 14 16 16 17 17 15 14 15 15 17 18 18 16 16 14 22 22 24 24 21 16
5 3 1 2 4 5 5 6 7 7 6 7 8 9 10 11 13 14 14 14 15 15 16 17 16 16 15 13 12 12 13 14 14 15 16 16 17 16 15 15 14 13 12 14 14 15 14 13 13 14 14 15 17 15 17 17 13 22 24 26 26 21 15
4 2 2 2 3 3 3 4 3 3 6 7 6 7 10 11 11 12 12 13 13 14 15 14 12 11 12 13 14 14 14 13 14 14 15 15 14 13 13 12 13 14 14 14 13 13 13 13 13 15 14 15 17 15 17 17 16 17 25 26 27 28 17
4 1 0 1 1 3 1 0 1 2 2 2 1 3 7 9 10 11 10 11 12 13 11 10 10 10 11 12 12 12 13 12 13 15 15 14 13 13 13 13 13 13 13 13 12 12 12 13 13 14 14 14 15 16 17 16 19 15 25 24 26 28 24
5 4 2 1 1 2 0 2 3 2 4 3 2 3 5 7 8 9 9 9 9 9 8 8 9 9 10 11 12 13 13 13 12 12 12 12 12 12 12 11 11 12 13 12 12 13 13 13 14 14 14 14 15 16 16 16 20 14 22 27 28 29 33
5 4 4 3 3 2 2 3 4 5 5 4 4 4 4 7 8 8 8 8 6 5 6 6 7 8 9 9 11 11 11 10 12 10 10 11 12 12 11 11 11 12 12 12 12 14 15 15 15 16 16 14 15 17 16 16 14 19 16 25 28 29 31
4 4 4 4 4 4 4 5 5 6 7 6 7 6 6 7 8 8 9 8 5 5 5 6 6 7 8 8 9 9 10 10 11 11 10 11 11 12 12 12 11 11 11 11 12 12 14 15 14 14 15 17 17 16 16 15 17 15 21 21 28 28 31
6 6 6 6 5 4 5 7 9 9 9 8 9 9 9 8 10 10 9 6 4 4 4 5 6 6 7 8 9 9 10 10 10 11 11 10 11 11 11 12 11 11 12 12 14 13 15 14 13 15 15 15 16 16 16 16 16 15 16 25 25 27 27
5 6 6 6 6 5 7 9 10 11 12 11 10 10 10 10 9 10 7 5 4 4 4 4 4 5 6 6 7 8 8 9 9 9 9 10 9 10 10 11 12 12 12 12 13 13 14 14 14 14 14 14 16 15 14 13 15 16 10 16 21 23 26
6 5 6 6 5 5 6 8 10 11 13 13 11 11 10 11 9 8 7 6 5 5 5 5 5 5 5 5 5 6 6 7 7 7 7 8 8 8 9 10 10 10 11 11 12 12 13 13 13 14 15 15 16 15 16 15 17 17 10 10 11 12 16
6 5 5 5 5 4 6 7 9 10 12 12 11 10 10 10 9 8 7 6 5 5 5 7 6 7 7 7 6 6 6 5 3 2 5 6 7 7 8 9 9 9 9 10 10 11 11 11 13 14 15 15 15 15 16 16 17 18 12 11 12 12 12
6 6 6 6 5 5 6 7 9 10 11 12 10 10 10 10 9 8 7 6 6 6 7 7 7 6 7 6 6 5 4 5 5 6 4 4 4 2 2 3 3 4 5 8 7 6 7 8 10 12 14 13 13 13 15 16 18 17 16 12 18 18 15
7 7 7 6 7 8 8 9 10 11 11 11 10 10 10 9 8 7 7 7 7 8 9 9 9 8 7 7 6 6 5 4 4 3 2 2 1 1 0 5 5 4 4 5 8 13 12 5 6 8 8 10 10 11 12 14 14 18 16 15 23 26 27
9 8 9 9 10 11 11 11 11 12 12 11 11 11 11 10 9 8 7 7 7 7 8 7 7 7 8 8 8 7 7 6 6 5 5 4 4 3 3 4 3 0 0 2 6 8 11 11 10 10 5 3 8 13 18 19 23 26 23 16 18 22 28
11 10 10 11 11 12 12 12 12 13 13 11 11 12 11 12 11 10 10 9 8 8 9 8 8 9 9 8 8 8 8 7 7 6 6 5 4 3 2 2 1 2 3 2 1 6 9 11 12 11 11 9 9 9 12 16 20 22 23 23 21 24 27
Wind_Direction
201 200 201 198 197 197 195 192 189 188 187 187 187 188 188 188 188 185 186 186 188 189 190 191 193 194 198 201 202 201 202 202 202 203 203 206 207 205 204 203 203 205 209 210 210 212 211 208 211 209 205 203 203 202 202 202 207 215 216 213 215 215 213
199 201 200 199 200 200 198 193 189 188 187 187 187 187 188 189 188 188 188 186 187 188 188 191 192 195 197 201 201 201 201 203 203 202 203 204 205 206 205 204 205 205 209 214 212 210 207 203 204 204 205 202 203 201 202 204 203 209 213 210 214 215 213
199 200 200 198 200 200 198 194 191 191 188 187 186 186 188 188 188 188 185 184 186 188 188 191 194 196 197 199 201 201 201 201 203 203 203 204 203 204 203 205 205 206 208 210 213 210 204 203 199 202 203 204 205 202 205 206 202 204 214 210 210 211 212
201 201 199 199 200 198 195 194 193 192 190 189 188 188 188 186 187 187 186 185 184 185 189 192 192 194 194 197 200 198 199 202 204 204 205 206 205 204 204 205 207 209 209 210 209 209 207 202 200 201 202 206 205 205 205 207 208 203 212 210 211 206 208
206 205 203 201 202 198 196 196 196 195 193 192 190 188 187 185 184 186 188 188 186 187 189 188 189 190 192 195 197 199 200 201 203 205 206 206 205 203 205 207 206 208 209 208 207 206 206 202 202 201 200 204 205 205 205 204 206 200 207 210 212 203 211
204 202 202 202 202 200 198 197 198 197 197 195 189 187 188 186 184 187 188 187 191 191 188 187 188 188 193 195 196 198 199 201 203 203 205 204 203 204 206 208 208 208 208 207 205 206 203 205 205 203 203 203 207 207 206 204 203 201 202 209 209 201 207
203 197 199 203 202 201 199 201 200 200 199 198 195 189 188 187 188 188 187 189 191 190 189 189 190 189 192 193 197 197 197 199 200 203 203 204 203 206 208 208 209 210 210 205 208 205 204 205 206 206 207 209 208 210 207 204 201 198 197 201 200 199 203
208 196 198 200 202 202 201 202 202 201 197 197 194 192 192 191 190 189 190 191 192 191 191 193 191 192 191 193 195 197 199 199 199 201 202 204 204 206 207 207 207 209 207 208 205 206 206 205 205 206 208 210 209 209 208 203 201 199 195 195 196 197 196
210 201 201 204 205 205 204 202 202 199 197 195 198 196 192 191 192 192 193 192 191 192 193 193 192 192 190 191 193 197 198 197 199 199 200 203 203 205 206 206 207 205 207 207 207 204 208 206 207 204 205 209 209 207 208 206 203 203 199 197 195 196 198
184 166 194 205 209 210 208 204 195 199 198 195 195 194 193 193 193 194 195 195 193 194 193 194 193 191 190 192 195 195 194 196 198 200 201 203 205 206 208 207 206 204 207 207 209 205 205 208 207 204 203 205 206 206 206 205 205 204 202 200 198 197 198
157 158 166 188 198 203 202 201 197 199 197 192 192 195 195 194 194 194 193 194 196 196 194 193 192 191 191 193 195 194 194 196 197 199 203 205 205 207 208 209 208 205 207 207 210 208 203 204 207 206 203 205 205 206 206 206 205 206 206 203 202 200 200
133 182 209 207 202 197 203 202 200 194 195 192 193 194 193 194 194 194 192 194 195 194 193 194 192 192 191 194 196 195 195 197 198 201 203 205 208 209 210 210 210 208 206 208 209 208 208 203 203 204 204 205 206 207 207 206 207 207 208 207 204 202 202
191 216 220 209 198 201 199 203 203 197 191 191 193 194 194 194 196 197 194 195 195 194 193 192 192 193 192 194 195 195 197 196 199 201 204 205 208 208 209 211 211 211 210 206 209 209 210 208 205 203 204 205 207 208 208 208 207 208 207 208 207 203 202
199 216 211 194 199 201 206 209 207 201 197 196 195 195 197 197 197 199 198 198 195 193 192 191 192 194 194 194 195 195 195 196 197 200 202 203 203 206 208 209 210 209 210 209 208 211 211 211 207 204 203 204 208 209 208 208 208 207 208 208 207 204 204
188 190 178 184 194 206 213 213 207 204 202 202 201 200 201 201 200 198 199 200 197 195 194 190 189 192 194 194 195 195 193 193 196 198 200 201 200 204 206 207 208 208 209 209 211 211 213 211 210 205 204 205 207 208 207 209 208 207 203 205 209 208 206
206 184 185 189 193 204 213 221 211 199 198 199 202 202 201 199 198 197 198 198 197 197 195 188 189 191 193 195 195 191 189 191 192 194 196 197 200 201 203 206 207 207 208 209 210 211 211 212 211 210 205 204 205 207 207 208 209 201 195 195 200 203 207
248 259 250 222 206 211 224 228 218 202 195 197 200 201 201 200 199 199 200 199 198 197 195 192 189 191 192 196 191 186 185 187 191 190 194 196 198 199 201 204 205 207 207 207 208 210 208 211 212 213 211 207 206 206 208 209 209 189 184 189 193 200 204
257 255 258 222 218 238 242 239 223 209 203 200 200 200 200 199 198 197 200 198 198 196 193 194 193 193 193 191 184 184 185 188 187 191 194 193 198 198 199 201 204 206 206 206 208 208 210 210 212 213 213 211 209 210 210 212 202 181 183 185 188 193 202
260 272 281 184 203 222 235 241 233 222 216 210 206 203 202 195 194 199 199 198 196 193 194 196 195 193 191 187 184 187 187 187 189 191 193 196 195 196 198 200 203 205 205 207 206 207 210 212 211 213 213 214 213 213 212 217 193 180 180 184 187 190 199
268 278 284 283 239 243 249 240 249 246 228 221 217 212 205 198 200 199 196 195 191 195 198 197 198 193 192 189 189 188 189 190 192 193 196 194 193 196 199 202 205 205 207 208 208 211 212 213 214 214 214 214 216 216 217 220 186 179 179 184 187 190 197
275 281 290 287 274 266 249 253 258 247 244 236 222 215 208 203 202 195 191 191 192 193 194 195 196 194 191 192 192 191 192 193 195 196 195 194 195 197 202 205 206 207 209 210 210 210 211 212 213 215 215 215 215 217 219 223 184 178 180 184 186 190 195
262 266 269 277 288 283 271 268 264 263 258 244 222 217 212 206 197 194 193 190 191 192 193 192 193 194 190 192 193 196 196 196 197 196 195 195 196 200 205 207 207 207 206 211 214 214 214 215 217 216 216 216 217 219 221 219 180 179 179 182 185 185 195
270 271 282 283 283 280 289 285 272 268 257 244 233 220 214 202 195 194 190 189 192 190 191 189 190 194 194 195 195 196 197 197 197 196 197 197 198 202 205 207 207 207 204 209 213 213 214 216 216 216 217 216 218 221 223 226 182 178 180 182 184 181 200
232 249 263 287 300 284 275 270 269 257 247 240 227 221 208 198 193 193 193 193 192 192 192 195 197 196 196 197 196 196 195 195 195 195 196 197 202 205 207 208 206 207 203 208 211 215 218 215 217 218 218 219 220 218 221 228 186 178 181 184 181 185 198
205 206 251 291 297 297 299 298 281 267 237 228 220 209 206 198 194 191 193 192 194 194 196 199 201 198 197 195 191 192 193 194 195 197 198 201 206 208 210 210 210 209 207 213 216 220 221 220 222 222 220 221 224 215 223 233 205 179 181 184 181 188 200
164 167 203 248 259 278 294 305 281 227 208 203 205 205 197 195 191 192 190 191 193 197 201 202 198 193 191 190 189 190 194 195 196 198 202 206 208 209 212 209 210 211 211 215 217 220 222 222 224 225 224 223 224 222 220 227 230 185 187 183 184 188 194
123 123 355 292 0 301 281 2 26 45 50 68 93 173 191 186 188 191 190 189 194 201 199 194 190 186 183 186 189 191 193 195 198 200 203 205 205 207 211 210 213 213 214 217 218 221 221 220 224 225 226 225 223 224 224 226 233 198 184 185 186 188 192
133 142 119 37 292 265 98 88 85 94 85 74 132 168 189 181 180 187 179 181 191 193 189 185 182 177 177 181 189 194 195 198 199 200 202 204 207 206 209 212 212 212 213 216 216 219 223 226 228 227 226 225 226 230 226 225 223 219 184 187 188 189 194
133 139 137 140 134 138 151 101 77 63 54 54 74 126 148 162 166 169 168 168 159 165 168 162 170 174 180 184 189 194 197 198 198 200 204 207 207 209 209 207 210 212 215 217 222 229 235 234 236 240 243 241 240 240 235 233 225 216 194 192 191 192 195
137 138 128 105 100 119 125 106 90 81 66 58 62 90 121 134 125 118 109 96 91 114 123 143 151 160 172 182 192 198 204 207 206 205 207 207 205 206 209 211 211 212 214 214 224 228 233 239 239 241 245 247 248 245 242 237 238 216 201 191 195 196 200
154 149 131 119 110 112 112 108 102 96 89 79 68 70 81 92 99 94 89 88 105 117 143 157 166 169 179 181 186 190 196 201 204 205 206 204 203 206 209 213 212 220 228 229 231 232 239 239 238 242 246 248 247 247 247 246 240 238 198 192 192 198 200
147 140 132 131 127 118 112 109 102 97 93 88 83 77 73 79 87 93 95 102 107 114 121 145 158 174 184 186 187 188 192 195 197 204 203 203 204 209 216 220 222 226 229 231 233 236 238 242 244 246 247 248 252 251 251 247 251 244 211 187 190 197 200
151 149 136 125 112 126 117 108 102 95 93 88 83 85 86 86 87 86 84 80 92 119 136 140 134 135 146 155 168 171 186 191 199 196 197 205 211 217 223 227 232 233 234 236 240 240 241 242 246 250 250 253 253 254 253 247 249 247 228 166 183 195 199
143 137 131 135 133 121 105 101 99 96 92 88 87 86 87 88 88 93 96 94 88 88 93 123 137 141 147 153 157 158 162 173 100 156 185 192 211 219 224 231 231 234 233 236 238 242 245 242 246 248 250 257 258 258 256 252 251 248 228 178 186 192 193
140 137 141 130 113 102 104 105 100 96 95 95 93 90 89 89 90 90 94 102 107 112 113 107 104 107 104 96 91 97 107 135 152 180 195 193 205 221 342 318 302 284 257 249 250 272 280 280 274 266 263 259 258 257 260 258 255 245 237 194 189 190 191
128 125 117 110 111 111 109 104 103 100 96 96 96 95 92 88 88 90 96 106 113 117 115 117 116 112 108 104 101 104 106 98 85 83 115 126 130 148 243 41 9 353 320 309 338 348 341 11 296 305 321 312 301 288 276 274 282 317 308 223 202 198 197
116 118 118 118 115 110 104 103 102 101 98 96 96 94 95 93 89 86 84 87 99 111 110 105 98 91 85 76 73 73 89 98 98 101 96 88 95 97 113 132 96 289 328 298 324 331 330 332 325 319 303 251 291 296 295 288 287 284 282 278 248 217 205
106 104 106 108 108 108 110 105 100 98 95 94 94 94 94 93 93 93 93 90 93 100 106 100 92 88 85 86 91 84 80 80 77 79 82 75 65 70 76 77 117 130 172 184 16 333 328 326 324 320 314 294 270 283 299 296 289 285 281 266 237 227 223